Volver al catálogo

STARLINK-32492

ActivoComunicacionesVLEO
NORAD 62050·PAYLOAD·🇺🇸 United States

Lanzado Nov 21, 2024 desde Cape Canaveral Space Force Station

Loading…

Próximos Pases (próximas 24 horas)

TLE

ActualizadoSource: CelesTrak SupGP

Época: Sep 14, 2026, 22:20 UTC

1 62050C 24216U   26257.93104167  .00028401  00000+0  10291-2 0  2577
2 62050  43.0026 274.5457 0001865 272.2681 216.4921 15.27549281    12

Sigue STARLINK-32492 en tiempo real con AllMySat

Download on the App Store